Starlink 32765

operational
NORAD ID: 62747 Int'l Des: 2025-014 Owner: SPXS Country: US Constellation: starlink
LEOCIRCULAR

关于 Starlink 32765

正在加载描述...

实时位置

正在加载3D地球...

即将过境

高度历史

Altitude vs Time

uPlot chart will show altitude changes over time

两行轨道根数

1 62747U 25014N 25351.15345055 .00013166 00000-0 48676-3 0 9993
2 62747 43.0025 260.5895 0001450 272.8517 87.2169 15.27602926 50636
Epoch: Dec 17, 2025 • Age: 9 hours

当前状态

高度 492.4 km
速度 7.62 km/s
星下点 -35.90°S, 71.12°W
发射日期 Jan 21, 2025
运行时间 0.9 years
类型 internet

技术详情

分类 Payload
质量 730.00 kg
干质量 700.00 kg
总质量 730.00 kg
长度 0.30 m
直径 4.10 m
跨度 29.00 m
形状 Box + pan
制造商 SPXS
平台类型 Starlink V2M
阶段状态 In Orbit
所有者/国家 SPXS/US

大型星座

Loading constellations...